CW8822 Caguas PR US current weather conditions

sailwx.info

Wind from 207

Air temperature 22.2° C
Dewpoint 21.6° C

Last reported at 2014-Oct-21 07:40 UTC.
Time now 2014-Oct-21 08:49 UTC

Location: N 18°12' W 066°01'.
View on Google Maps.

See reports from other nearby stations

  
Tides and Currents Weather Stations Pressure Air Temp Water Temp Dewpoint Dewpoint Depression Visibility Wind Speed Wind Dir Waves Ship Positions
date/time (UTC)wind fromknots sea level pressurealtimeterstation pressurevisibilityair tempwater tempwave heightnotes
2014-Oct-21 07:40 207 22.2
2014-Oct-21 07:24 207 22.2
2014-Oct-21 07:09 207 22.2
2014-Oct-21 06:55 207 22.2
2014-Oct-21 06:38 207 22.2
2014-Oct-21 06:24 207 22.2
2014-Oct-21 06:09 207 22.2
2014-Oct-21 05:55 207 22.2
2014-Oct-21 05:38 207 0 gusting 3 22.2
2014-Oct-21 05:24 205 22.8
2014-Oct-21 05:09 205 22.8
2014-Oct-21 04:53 205 22.8
2014-Oct-21 04:38 205 22.8
2014-Oct-21 04:24 205 22.8
2014-Oct-21 04:08 205 22.8
2014-Oct-21 03:53 205 22.8
2014-Oct-21 03:38 205 22.8
2014-Oct-21 03:24 205 0 gusting 3 22.8
2014-Oct-21 03:08 204 23.9
2014-Oct-21 02:53 204 23.9
2014-Oct-21 02:38 204 23.9
2014-Oct-21 02:23 204 1 gusting 4 23.3
2014-Oct-21 02:09 204 0 gusting 4 23.3
2014-Oct-21 01:52 204 0 gusting 3 23.3
2014-Oct-21 01:38 204 23.3
2014-Oct-21 01:23 204 23.3
2014-Oct-21 01:07 204 23.3
2014-Oct-21 00:52 204 0 gusting 3 23.3
2014-Oct-21 00:38 138 23.3
2014-Oct-21 00:23 138 23.3
2014-Oct-21 00:07 138 23.3
2014-Oct-20 23:52 138 23.9
2014-Oct-20 23:38 138 23.9
2014-Oct-20 23:23 138 23.9
2014-Oct-20 23:07 138 23.9
2014-Oct-20 22:52 138 23.9
2014-Oct-20 22:37 138 23.9
2014-Oct-20 22:23 138 23.9
2014-Oct-20 22:08 138 24.4
2014-Oct-20 21:51 138 24.4
2014-Oct-20 21:37 138 24.4
2014-Oct-20 21:22 140 0 gusting 7 24.4
2014-Oct-20 21:07 140 24.4
2014-Oct-20 20:52 117 25.0
2014-Oct-20 20:36 122 1 gusting 4 25.0
2014-Oct-20 20:21 132 25.6
2014-Oct-20 20:06 132 1 gusting 5 25.0
2014-Oct-20 19:52 114 3 gusting 6 25.0
2014-Oct-20 19:36 132 0 gusting 3 24.4
2014-Oct-20 19:21 133 0 gusting 3 24.4
2014-Oct-20 19:08 136 25.0
2014-Oct-20 18:52 118 1 gusting 9 25.6
2014-Oct-20 18:35 140 5 gusting 11 26.7
2014-Oct-20 18:21 022 27.8
2014-Oct-20 18:06 040 0 gusting 4 27.8
2014-Oct-20 17:51 142 27.8
2014-Oct-20 17:37 117 27.2
2014-Oct-20 17:20 115 0 gusting 4 28.9
2014-Oct-20 17:06 005 28.9
2014-Oct-20 16:51 053 1 gusting 8 27.8
2014-Oct-20 16:35 010 27.8
2014-Oct-20 16:20 031 2 gusting 5 27.8
2014-Oct-20 16:05 242 28.3
2014-Oct-20 15:51 077 0 gusting 4 27.8
2014-Oct-20 15:34 028 1 gusting 4 27.8
2014-Oct-20 15:20 286 0 gusting 5 28.3
2014-Oct-20 15:05 326 28.3
2014-Oct-20 14:50 263 28.3
2014-Oct-20 14:34 280 27.2
2014-Oct-20 14:20 228 0 gusting 3 27.8
2014-Oct-20 14:10 344 0 gusting 3 28.3
2014-Oct-20 13:50 012 27.8
2014-Oct-20 13:34 046 1 gusting 5 27.2
2014-Oct-20 13:20 280 27.2
2014-Oct-20 13:05 082 26.7
2014-Oct-20 12:49 082 0 gusting 1 26.1
2014-Oct-20 12:33 085 25.6
2014-Oct-20 12:18 085 25.0
2014-Oct-20 12:03 085 24.4
2014-Oct-20 11:48 054 23.9
2014-Oct-20 11:33 118 23.3
2014-Oct-20 11:18 118 22.8
2014-Oct-20 11:03 118 22.2
2014-Oct-20 10:48 103 0 gusting 2 22.2
2014-Oct-20 10:33 264 22.2
2014-Oct-20 10:18 302 22.2
2014-Oct-20 10:03 302 22.2
2014-Oct-20 09:48 302 22.8
2014-Oct-20 09:33 302 22.2
2014-Oct-20 09:18 302 22.2
2014-Oct-20 09:03 302 22.2
2014-Oct-20 08:48 302 22.2
2014-Oct-20 08:33 302 22.8
2014-Oct-20 08:18 302 22.8
2014-Oct-20 08:03 302 22.8
2014-Oct-20 07:48 302 22.8
2014-Oct-20 07:33 302 22.8
2014-Oct-20 07:18 302 22.8
2014-Oct-20 07:02 302 22.8
2014-Oct-20 06:47 302 22.8
2014-Oct-20 06:32 302 22.8
2014-Oct-20 06:17 302 22.8
2014-Oct-20 06:02 302 22.8
2014-Oct-20 05:47 302 22.8
2014-Oct-20 05:32 302 22.8
2014-Oct-20 05:17 302 23.3
2014-Oct-20 05:02 302 23.3
2014-Oct-20 04:47 297 0 gusting 3 23.3
2014-Oct-20 04:32 298 23.9
2014-Oct-20 04:17 298 23.9
2014-Oct-20 04:02 298 23.9
2014-Oct-20 03:47 326 0 gusting 3 23.9
2014-Oct-20 03:32 336 0 gusting 2 23.9
2014-Oct-20 03:17 336 23.9
2014-Oct-20 03:02 336 0 gusting 3 23.9
2014-Oct-20 02:47 344 0 gusting 3 23.9
2014-Oct-20 02:32 355 23.9
2014-Oct-20 02:17 355 23.9
2014-Oct-20 02:02 355 23.9
2014-Oct-20 01:47 355 24.4
2014-Oct-20 01:32 355 24.4
2014-Oct-20 01:17 355 24.4
2014-Oct-20 01:02 355 24.4
2014-Oct-20 00:47 355 24.4
2014-Oct-20 00:32 355 24.4
2014-Oct-20 00:17 355 24.4
2014-Oct-20 00:02 355 24.4
2014-Oct-19 23:47 355 24.4
2014-Oct-19 23:32 355 24.4
2014-Oct-19 23:17 355 24.4
2014-Oct-19 23:02 355 24.4
2014-Oct-19 22:47 341 25.0
2014-Oct-19 22:32 297 25.6
2014-Oct-19 22:17 297 25.0
2014-Oct-19 22:02 300 25.6
2014-Oct-19 21:47 300 25.6
2014-Oct-19 21:32 300 25.6
2014-Oct-19 21:17 300 25.6
2014-Oct-19 21:02 300 26.1
2014-Oct-19 20:47 300 26.1
2014-Oct-19 20:32 300 26.1
2014-Oct-19 20:17 300 26.1
2014-Oct-19 20:02 300 26.7
2014-Oct-19 19:47 059 26.7
2014-Oct-19 19:32 059 26.7
2014-Oct-19 19:17 270 26.7
2014-Oct-19 19:02 237 26.7
2014-Oct-19 18:47 075 26.7
2014-Oct-19 18:32 075 26.1
2014-Oct-19 18:17 075 26.1
2014-Oct-19 18:02 107 0 gusting 5 27.2
2014-Oct-19 17:47 159 0 gusting 8 27.2
2014-Oct-19 17:32 164 2 gusting 12 27.2
2014-Oct-19 17:17 061 2 gusting 7 29.4
2014-Oct-19 17:02 044 0 gusting 6 30.0
2014-Oct-19 16:47 051 29.4
2014-Oct-19 16:32 038 1 gusting 4 30.0
2014-Oct-19 16:17 042 29.4
2014-Oct-19 16:02 057 29.4
2014-Oct-19 15:47 057 29.4
2014-Oct-19 15:32 214 0 gusting 3 30.6
2014-Oct-19 15:17 025 29.4
2014-Oct-19 15:02 040 2 gusting 4 29.4
2014-Oct-19 14:47 060 0 gusting 4 30.0
2014-Oct-19 14:32 061 0 gusting 2 29.4
2014-Oct-19 14:17 070 0 gusting 1 29.4
2014-Oct-19 14:02 288 28.9
2014-Oct-19 13:47 123 28.3
2014-Oct-19 13:31 046 27.8
2014-Oct-19 13:16 076 1 gusting 4 27.8
2014-Oct-19 13:01 077 26.7
2014-Oct-19 12:46 077 26.1
2014-Oct-19 12:31 077 25.6
2014-Oct-19 12:16 252 25.0
2014-Oct-19 12:01 252 24.4
2014-Oct-19 11:46 252 23.9
2014-Oct-19 11:31 286 23.3
2014-Oct-19 11:16 047 22.8
2014-Oct-19 11:01 046 22.8
2014-Oct-19 10:46 046 22.8
2014-Oct-19 10:31 084 22.2
2014-Oct-19 10:16 151 22.2
2014-Oct-19 10:01 151 22.8
2014-Oct-19 09:46 151 22.8
2014-Oct-19 09:31 151 22.8
2014-Oct-19 09:16 151 22.8
2014-Oct-19 09:01 151 22.8
2014-Oct-19 08:46 151 22.8
2014-Oct-19 08:31 151 22.8
2014-Oct-19 08:15 151 22.8
2014-Oct-19 08:00 151 22.8